Home   Weather   Selkirk   Past weeks
Flag for Canada

Past Weather in Selkirk, Manitoba, Canada — Yesterday and Last 2 Weeks

Now
47 °F

Cool.


Feels Like: 47 °F
Forecast: 65 / 33 °F
Wind: 2 mph from East

Location: Winnipeg The Forks Man

Current Time: May 27, 2019 at 9:16:44 am

Latest Report: May 27, 2019 at 8:00 am


Visibility: N/A

Pressure: 30.17 "Hg

Humidity: 61%

Dew Point: 34 °F

Location of SelkirkLocation

Past Weather in Selkirk — Graph

°F

Selkirk Temperature Yesterday

Maximum temperature yesterday: 55 °F (at 7:00 pm)
Minimum temperature yesterday: 42 °F (at 6:00 am)
Average temperature yesterday: 48 °F

High & Low Weather Summary for the Past Weeks

 TemperatureHumidityPressure
High77 °F (May 13, 6:00 pm)95% (May 25, 12:00 am)30.25 "Hg (May 25, 12:00 am)
Low36 °F (May 17, 5:00 am)18% (May 21, 6:00 pm)29.56 "Hg (May 15, 9:00 pm)
Average53 °F53%29.98 "Hg
* Reported May 12 8:00 am — May 27 8:00 am, Selkirk. Weather by CustomWeather, © 2019

Note: Actual official high and low records may vary slightly from our data, if they occured in-between our weather recording intervals... More about our weather records

Advertising

Selkirk Weather History for the Previous 24 Hours

Scroll right to see more
 ConditionsComfort  
Time TempWeatherWind HumidityBarometerVisibility
8:00 am
Mon, May 27
47 °FCool.2 mph61%30.17 "HgN/A
7:00 am41 °FQuite cool.2 mph70%30.17 "HgN/A
6:00 am39 °FChilly.5 mph77%30.17 "HgN/A
5:00 am40 °FChilly.3 mph78%30.16 "HgN/A
4:00 am41 °FQuite cool.1 mph78%30.17 "HgN/A
3:00 am42 °FQuite cool.1 mph81%30.18 "HgN/A
2:00 am42 °FQuite cool.1 mph88%30.20 "HgN/A
1:00 am42 °FQuite cool.No wind88%30.22 "HgN/A
12:00 am46 °FCool.1 mph71%30.22 "HgN/A
11:00 pm
Sun, May 26
48 °FCool.1 mph67%30.22 "HgN/A
10:00 pm50 °FCool.2 mph59%30.20 "HgN/A
9:00 pm52 °FCool.3 mph50%30.19 "HgN/A
8:00 pm54 °FCool.3 mph43%30.18 "HgN/A
7:00 pm55 °FRefreshingly cool.2 mph29%30.19 "HgN/A
6:00 pm54 °FCool.1 mph33%30.21 "HgN/A
5:00 pm54 °FCool.3 mph33%30.22 "HgN/A
4:00 pm54 °FCool.3 mph36%30.22 "HgN/A
3:00 pm51 °FCool.5 mph43%30.23 "HgN/A
2:00 pm51 °FCool.6 mph43%30.23 "HgN/A
1:00 pm48 °FCool.5 mph48%30.24 "HgN/A
12:00 pm46 °FCool.7 mph51%30.25 "HgN/A
11:00 am45 °FCool.7 mph52%30.25 "HgN/A
10:00 am45 °FCool.6 mph55%30.24 "HgN/A
9:00 am44 °FQuite cool.5 mph61%30.24 "HgN/A
Weather by CustomWeather, © 2019

See weather overview